Home   Weather   Melbourne   Past weeks
Flag for Australia

Past Weather in Melbourne, Victoria, Australia — Yesterday and Last 2 Weeks

Now
61 °F

Partly cloudy.


Feels Like: 61 °F
Forecast: 82 / 61 °F
Wind: 5 mph from North

Location: Melbourne Airport

Current Time: Mar 24, 2019 at 6:32:11 am

Latest Report: Mar 24, 2019 at 6:00 am


Visibility: N/A

Pressure: 29.83 "Hg

Humidity: 88%

Dew Point: 57 °F

Location of MelbourneLocation

Past Weather in Melbourne — Graph

°F

Melbourne Temperature Yesterday

Maximum temperature yesterday: 88 °F (at 4:00 pm)
Minimum temperature yesterday: 66 °F (at 9:30 am)
Average temperature yesterday: 73 °F

High & Low Weather Summary for the Past Weeks

 TemperatureHumidityPressure
High88 °F (Mar 22, 2:30 pm)100% (Mar 17, 7:10 am)30.15 "Hg (Mar 17, 7:10 am)
Low46 °F (Mar 13, 1:00 am)24% (Mar 9, 1:30 pm)29.68 "Hg (Mar 23, 2:06 pm)
Average66 °F69%29.97 "Hg
* Reported Mar 9 5:00 am — Mar 24 5:30 am, Melbourne. Weather by CustomWeather, © 2019

Note: Actual official high and low records may vary slightly from our data, if they occured in-between our weather recording intervals... More about our weather records

Advertising

Melbourne Weather History for the Previous 24 Hours

Scroll right to see more
 ConditionsComfort  
Time TempWeatherWind HumidityBarometerVisibility
5:30 am
Sun, Mar 24
63 °FPartly cloudy.1 mph83%29.83 "HgN/A
5:00 am64 °FPartly cloudy.6 mph83%29.83 "HgN/A
4:30 am64 °FPartly cloudy.6 mph83%29.83 "HgN/A
4:00 am64 °FPassing clouds.7 mph83%29.83 "HgN/A
3:30 am64 °FPartly cloudy.6 mph83%29.83 "HgN/A
3:00 am64 °FPartly cloudy.7 mph83%29.86 "HgN/A
2:30 am64 °FPartly cloudy.5 mph88%29.86 "HgN/A
2:00 am64 °FPartly cloudy.5 mph83%29.86 "HgN/A
1:30 am66 °FPartly cloudy.7 mph83%29.89 "HgN/A
1:00 am64 °FPartly cloudy.6 mph88%29.86 "HgN/A
12:30 am66 °FPassing clouds.7 mph83%29.86 "HgN/A
12:00 am66 °FPassing clouds.9 mph78%29.89 "HgN/A
11:30 pm
Sat, Mar 23
66 °FPartly cloudy.7 mph78%29.86 "HgN/A
11:00 pm66 °FPartly cloudy.7 mph78%29.86 "HgN/A
10:30 pm66 °FPartly cloudy.6 mph83%29.86 "HgN/A
10:00 pm66 °FClear.7 mph83%29.86 "Hg10 mi
9:30 pm66 °FClear.10 mph83%29.83 "Hg10 mi
9:00 pm66 °FClear.9 mph83%29.83 "Hg10 mi
8:30 pm66 °FClear.8 mph83%29.83 "Hg10 mi
8:00 pm66 °FClear.9 mph83%29.80 "Hg10 mi
7:30 pm68 °FClear.10 mph78%29.80 "Hg10 mi
7:00 pm68 °FSunny.15 mph83%29.77 "Hg10 mi
6:30 pm70 °FSunny.20 mph73%29.71 "Hg10 mi
6:10 pm77 °FSunny.15 mph57%29.71 "Hg10 mi
5:30 pm86 °FSunny.20 mph33%29.68 "Hg10 mi
5:00 pm86 °FSunny.20 mph33%29.68 "Hg10 mi
4:35 pm86 °FSunny.20 mph33%29.68 "Hg10 mi
4:00 pm88 °FSunny.18 mph29%29.68 "Hg10 mi
3:39 pm86 °FSunny.21 mph31%29.68 "Hg10 mi
3:00 pm86 °FSunny.23 mph33%29.68 "Hg10 mi
2:30 pm86 °FSunny.26 mph33%29.68 "Hg10 mi
2:06 pm84 °FSunny.25 mph35%29.68 "Hg10 mi
1:30 pm84 °FSunny.25 mph35%29.71 "Hg10 mi
1:00 pm82 °FSunny.24 mph37%29.71 "Hg10 mi
12:30 pm81 °FSunny.18 mph42%29.71 "Hg10 mi
12:00 pm79 °FSunny.13 mph54%29.74 "Hg10 mi
11:00 am68 °FSprinkles. Broken clouds.9 mph83%29.80 "HgN/A
10:30 am66 °FSprinkles. Clear.7 mph83%29.83 "HgN/A
10:00 am66 °FSprinkles. Clear.13 mph83%29.83 "HgN/A
9:30 am66 °FSprinkles. Clear.22 mph83%29.80 "HgN/A
9:02 am68 °FSprinkles. Clear.20 mph73%29.80 "HgN/A
8:30 am72 °FSunny.15 mph57%29.80 "Hg10 mi
8:00 am72 °FSunny.15 mph57%29.83 "Hg10 mi
7:30 am72 °FSunny.24 mph57%29.80 "Hg10 mi
7:06 am72 °FThunderstorms. Mostly cloudy.28 mph57%29.77 "HgN/A
7:00 am72 °FThunderstorms. Mostly cloudy.29 mph57%29.77 "HgN/A
6:30 am72 °FScattered showers. Clear.31 mph57%29.77 "HgN/A
6:18 am72 °FClear.26 mph57%29.77 "Hg10 mi
6:00 am72 °FClear.23 mph57%29.77 "Hg10 mi
Weather by CustomWeather, © 2019

See weather overview